�������l�o���
Date,Time,MP-1(��Sv/h),MP-2(��Sv/h),MP-3(��Sv/h),MP-4(��Sv/h),MP-5(��Sv/h),MP-6(��Sv/h),MP-7(��Sv/h),MP-8(��Sv/h),����,����(m/s),���J
2018/02/09,00:00,0.872,1.461,0.907,1.678,1.171,0.482,0.859,0.829,���k��,6.4,��
2018/02/09,00:10,0.871,1.457,0.910,1.676,1.170,0.482,0.858,0.829,���k��,7.1,��
2018/02/09,00:20,0.872,1.454,0.909,1.680,1.171,0.481,0.856,0.828,���k��,6.3,��
2018/02/09,00:30,0.872,1.459,0.911,1.678,1.172,0.481,0.859,0.830,���k��,5.8,��
2018/02/09,00:40,0.873,1.458,0.911,1.680,1.169,0.481,0.859,0.831,���k��,5.8,��
2018/02/09,00:50,0.870,1.458,0.909,1.681,1.169,0.482,0.859,0.830,���k��,5.6,��
2018/02/09,01:00,0.870,1.459,0.911,1.680,1.172,0.484,0.858,0.830,���k��,4.9,��
2018/02/09,01:10,0.869,1.455,0.910,1.678,1.171,0.482,0.858,0.830,���k��,5.1,��
2018/02/09,01:20,0.871,1.456,0.910,1.679,1.169,0.482,0.860,0.828,���k��,6.6,��
2018/02/09,01:30,0.869,1.457,0.911,1.679,1.171,0.482,0.856,0.829,��,6.7,��
2018/02/09,01:40,0.869,1.457,0.909,1.680,1.169,0.482,0.857,0.828,��,6.4,��
2018/02/09,01:50,0.871,1.459,0.910,1.681,1.171,0.481,0.858,0.828,��,6.0,��
2018/02/09,02:00,0.870,1.457,0.910,1.677,1.169,0.481,0.859,0.829,���k��,5.0,��
2018/02/09,02:10,0.871,1.457,0.908,1.678,1.174,0.481,0.859,0.830,���k��,4.2,��
2018/02/09,02:20,0.869,1.457,0.910,1.681,1.169,0.482,0.860,0.829,���k��,5.0,��
2018/02/09,02:30,0.873,1.460,0.908,1.678,1.172,0.482,0.859,0.830,��,3.8,��
2018/02/09,02:40,0.870,1.457,0.911,1.678,1.169,0.483,0.858,0.829,���k��,3.7,��
2018/02/09,02:50,0.870,1.456,0.908,1.678,1.171,0.481,0.859,0.828,���k��,3.9,��
2018/02/09,03:00,0.870,1.457,0.910,1.677,1.168,0.482,0.859,0.830,��,5.1,��
2018/02/09,03:10,0.872,1.457,0.910,1.678,1.169,0.481,0.859,0.829,��,5.6,��
2018/02/09,03:20,0.870,1.457,0.911,1.679,1.170,0.482,0.857,0.829,��,6.2,��
2018/02/09,03:30,0.872,1.458,0.910,1.677,1.168,0.481,0.859,0.829,��,6.6,��
2018/02/09,03:40,0.871,1.456,0.908,1.680,1.170,0.482,0.857,0.831,��,6.8,��
2018/02/09,03:50,0.869,1.457,0.909,1.678,1.172,0.481,0.857,0.828,��,6.3,��
2018/02/09,04:00,0.872,1.458,0.910,1.679,1.169,0.481,0.857,0.829,��,5.0,��
2018/02/09,04:10,0.870,1.454,0.907,1.678,1.167,0.482,0.858,0.830,��,4.4,��
2018/02/09,04:20,0.871,1.457,0.909,1.679,1.166,0.482,0.860,0.828,���쐼,5.3,��
2018/02/09,04:30,0.869,1.457,0.908,1.678,1.166,0.482,0.858,0.829,���쐼,5.0,��
2018/02/09,04:40,0.871,1.455,0.911,1.679,1.169,0.481,0.858,0.829,���쐼,4.6,��
2018/02/09,04:50,0.871,1.457,0.909,1.678,1.165,0.481,0.856,0.828,�쐼,4.2,��
2018/02/09,05:00,0.871,1.454,0.907,1.678,1.169,0.480,0.856,0.829,�쐼,3.9,��
2018/02/09,05:10,0.871,1.456,0.909,1.678,1.171,0.481,0.855,0.830,���쐼,4.3,��
2018/02/09,05:20,0.870,1.457,0.908,1.676,1.168,0.479,0.858,0.828,�쐼,5.0,��
2018/02/09,05:30,0.873,1.457,0.911,1.678,1.167,0.481,0.857,0.829,�쐼,5.3,��
2018/02/09,05:40,0.870,1.454,0.910,1.676,1.170,0.481,0.858,0.831,�쐼,5.1,��
2018/02/09,05:50,0.869,1.456,0.906,1.678,1.167,0.482,0.858,0.828,���쐼,5.5,��
2018/02/09,06:00,0.869,1.453,0.908,1.677,1.168,0.481,0.858,0.828,���쐼,6.7,��
2018/02/09,06:10,0.869,1.454,0.907,1.678,1.167,0.481,0.857,0.829,�쐼,7.3,��
2018/02/09,06:20,0.869,1.456,0.908,1.676,1.166,0.481,0.857,0.829,���쐼,7.2,��
2018/02/09,06:30,0.870,1.454,0.907,1.679,1.169,0.481,0.859,0.829,���쐼,6.8,��
2018/02/09,06:40,0.870,1.453,0.908,1.678,1.167,0.482,0.859,0.829,���쐼,6.8,��
2018/02/09,06:50,0.869,1.453,0.907,1.677,1.166,0.481,0.858,0.829,���쐼,7.5,��
2018/02/09,07:00,0.869,1.454,0.907,1.678,1.167,0.482,0.859,0.828,���쐼,6.2,��
2018/02/09,07:10,0.870,1.455,0.907,1.679,1.168,0.481,0.857,0.830,���쐼,4.6,��
2018/02/09,07:20,0.868,1.454,0.909,1.677,1.166,0.481,0.858,0.829,���쐼,3.2,��
2018/02/09,07:30,0.870,1.456,0.908,1.673,1.166,0.480,0.857,0.829,�쐼,2.0,��
2018/02/09,07:40,0.870,1.458,0.908,1.679,1.167,0.483,0.859,0.828,���쓌,0.9,��
2018/02/09,07:50,0.871,1.456,0.908,1.675,1.166,0.482,0.859,0.828,���쓌,1.8,��
2018/02/09,08:00,0.872,1.453,0.910,1.679,1.170,0.482,0.857,0.831,�쓌,2.9,��
2018/02/09,08:10,0.872,1.456,0.910,1.678,1.167,0.481,0.860,0.829,��쓌,2.0,��
2018/02/09,08:20,0.872,1.454,0.910,1.678,1.166,0.480,0.858,0.831,�쐼,1.2,��
2018/02/09,08:30,0.871,1.457,0.911,1.679,1.167,0.478,0.858,0.831,��쓌,0.9,��
2018/02/09,08:40,0.875,1.455,0.912,1.677,1.171,0.478,0.861,0.831,���쐼,1.7,��
2018/02/09,08:50,0.872,1.453,0.911,1.679,1.167,0.479,0.858,0.829,��,2.9,��
2018/02/09,09:00,0.872,1.455,0.909,1.678,1.168,0.482,0.861,0.830,��,3.7,��
2018/02/09,09:10,0.873,1.458,0.909,1.678,1.169,0.482,0.859,0.831,���쐼,2.3,��
2018/02/09,09:20,0.873,1.456,0.908,1.680,1.168,0.483,0.862,0.829,��,5.1,��
2018/02/09,09:30,0.876,1.459,0.907,1.680,1.171,0.483,0.861,0.830,���쐼,4.7,��
2018/02/09,09:40,0.877,1.458,0.909,1.681,1.169,0.481,0.860,0.831,���쐼,5.3,��
2018/02/09,09:50,0.875,1.460,0.908,1.678,1.170,0.483,0.858,0.830,��,4.5,��
2018/02/09,10:00,0.876,1.454,0.911,1.681,1.172,0.483,0.860,0.830,���쐼,6.5,��
2018/02/09,10:10,0.878,1.451,0.911,1.681,1.169,0.482,0.858,0.830,��,4.9,��
2018/02/09,10:20,0.877,1.452,0.912,1.681,1.170,0.484,0.858,0.831,��,4.5,��
2018/02/09,10:30,0.875,1.452,0.911,1.683,1.173,0.482,0.857,0.830,���쐼,4.9,��
2018/02/09,10:40,0.879,1.453,0.913,1.678,1.173,0.484,0.859,0.832,���쐼,5.9,��
2018/02/09,10:50,-,1.452,0.912,1.681,1.176,0.484,0.859,0.831,��,7.4,��
2018/02/09,11:00,-,1.453,0.912,1.681,1.172,0.485,0.860,0.832,��,3.8,��
2018/02/09,11:10,-,1.456,0.914,1.684,1.176,0.485,0.860,0.831,��,4.8,��
2018/02/09,11:20,-,1.452,0.912,1.684,1.177,0.485,0.859,0.831,���k��,7.2,��
2018/02/09,11:30,-,1.456,0.912,1.683,1.176,0.485,0.860,0.831,���k��,6.5,��
2018/02/09,11:40,-,1.455,0.914,1.682,1.176,0.484,0.861,0.833,���k��,5.9,��
2018/02/09,11:50,-,1.457,0.916,1.683,1.174,0.484,0.858,0.832,���k��,5.4,��
2018/02/09,12:00,-,1.458,0.911,1.683,1.176,0.483,0.861,0.832,��,5.7,��
2018/02/09,12:10,-,1.455,0.914,1.683,1.176,0.484,0.860,0.832,���쐼,7.6,��
2018/02/09,12:20,-,1.455,0.915,1.684,1.176,0.486,0.861,0.832,���쐼,6.4,��
2018/02/09,12:30,-,1.458,0.915,1.682,1.176,0.485,0.861,0.833,���k��,6.1,��
2018/02/09,12:40,-,1.455,0.915,1.684,1.178,0.486,0.860,0.832,���k��,7.5,��
2018/02/09,12:50,-,1.459,0.914,1.683,1.176,0.485,0.859,0.833,��,7.9,��
2018/02/09,13:00,-,1.460,0.909,1.687,1.175,0.487,0.860,0.832,��,6.2,��
2018/02/09,13:10,-,1.461,0.907,1.684,1.177,0.486,0.861,0.833,���k��,4.1,��
2018/02/09,13:20,-,1.457,0.907,1.685,1.178,0.485,0.858,0.834,��쓌,3.2,��
2018/02/09,13:30,-,1.458,0.906,1.686,1.176,0.484,0.858,0.832,��쓌,6.5,��
2018/02/09,13:40,-,1.458,0.905,1.684,1.179,0.486,0.861,0.832,��쓌,7.2,��
2018/02/09,13:50,-,1.458,0.906,1.683,1.177,0.486,0.860,0.830,��쓌,7.2,��
2018/02/09,14:00,-,1.458,0.911,1.687,1.177,0.485,0.861,0.828,��쓌,7.5,��
2018/02/09,14:10,-,1.458,0.913,1.684,1.179,0.486,0.860,0.829,��쓌,8.1,��
2018/02/09,14:20,-,1.458,0.914,1.686,1.178,0.485,0.859,0.830,��쓌,6.9,��
2018/02/09,14:30,-,1.459,0.917,1.687,1.179,0.486,0.859,0.829,��쓌,6.3,��
2018/02/09,14:40,-,1.461,0.914,1.685,1.175,0.485,0.859,0.828,��쓌,7.1,��
2018/02/09,14:50,-,1.461,0.913,1.686,1.180,0.485,0.861,0.829,��쓌,8.0,��
2018/02/09,15:00,0.877,1.459,0.914,1.686,1.176,0.486,0.861,0.830,��쓌,6.0,��
2018/02/09,15:10,0.880,1.462,0.916,1.689,1.178,0.485,0.861,0.831,��,6.2,��
2018/02/09,15:20,0.878,1.463,0.916,1.687,1.179,0.484,0.863,0.831,��,5.3,��
2018/02/09,15:30,0.880,1.461,0.916,1.685,1.182,0.485,0.862,0.832,��쐼,5.2,��
2018/02/09,15:40,0.880,1.465,0.915,1.685,1.177,0.485,0.861,0.832,��,3.9,��
2018/02/09,15:50,0.878,1.464,0.915,1.686,1.180,0.486,0.863,0.831,��,3.9,��
2018/02/09,16:00,0.881,1.465,0.914,1.683,1.180,0.485,0.861,0.832,��,3.9,��
2018/02/09,16:10,0.880,1.467,0.916,1.688,1.180,0.485,0.861,0.832,��쐼,2.9,��
2018/02/09,16:20,0.879,1.467,0.914,1.684,1.178,0.486,0.864,0.831,��쐼,3.4,��
2018/02/09,16:30,0.881,1.465,0.916,1.686,1.181,0.486,0.862,0.831,���쐼,3.0,��
2018/02/09,16:40,0.880,1.465,0.917,1.688,1.180,0.486,0.863,0.832,���k��,6.1,��
2018/02/09,16:50,0.878,1.465,0.916,1.687,1.178,0.484,0.862,0.832,��,7.0,��
2018/02/09,17:00,0.878,1.467,0.915,1.685,1.179,0.484,0.862,0.830,��,6.1,��
2018/02/09,17:10,0.879,1.466,0.916,1.688,1.181,0.484,0.862,0.829,��,6.4,��
2018/02/09,17:20,0.876,1.467,0.916,1.688,1.179,0.484,0.861,0.832,���쐼,6.3,��
2018/02/09,17:30,0.877,1.462,0.915,1.688,1.180,0.487,0.862,0.830,��,6.7,��
2018/02/09,17:40,0.876,1.467,0.916,1.688,1.180,0.483,0.861,0.831,��,6.1,��
2018/02/09,17:50,0.874,1.465,0.914,1.687,1.179,0.483,0.862,0.832,���쐼,4.6,��
2018/02/09,18:00,0.875,1.465,0.916,1.689,1.180,0.486,0.860,0.832,���쐼,4.2,��
2018/02/09,18:10,0.877,1.465,0.915,1.687,1.180,0.484,0.862,0.833,���쐼,4.4,��
2018/02/09,18:20,0.875,1.465,0.916,1.685,1.179,0.484,0.862,0.831,���쐼,4.7,��
2018/02/09,18:30,0.875,1.466,0.914,1.687,1.178,0.485,0.859,0.830,���쐼,4.5,��
2018/02/09,18:40,0.875,1.468,0.916,1.686,1.177,0.485,0.860,0.830,���쐼,3.6,��
2018/02/09,18:50,0.877,1.464,0.913,1.685,1.178,0.485,0.859,0.832,���쐼,3.1,��
2018/02/09,19:00,0.877,1.464,0.914,1.689,1.176,0.483,0.861,0.831,�쐼,2.6,��
2018/02/09,19:10,0.876,1.464,0.913,1.687,1.179,0.484,0.858,0.832,���쐼,2.8,��
2018/02/09,19:20,0.876,1.464,0.913,1.685,1.179,0.486,0.859,0.830,���쐼,3.0,��
2018/02/09,19:30,0.876,1.464,0.914,1.684,1.177,0.485,0.857,0.831,��,2.6,��
2018/02/09,19:40,0.877,1.461,0.915,1.685,1.177,0.481,0.860,0.832,�k��,1.7,��
2018/02/09,19:50,0.879,1.463,0.913,1.683,1.178,0.483,0.860,0.829,���k��,1.5,��
2018/02/09,20:00,0.878,1.461,0.914,1.685,1.178,0.485,0.859,0.832,���k��,2.3,��
2018/02/09,20:10,0.877,1.463,0.913,1.683,1.179,0.484,0.859,0.830,�k��,4.7,��
2018/02/09,20:20,0.878,1.462,0.915,1.687,1.176,0.484,0.859,0.831,���k��,7.6,��
2018/02/09,20:30,0.878,1.466,0.914,1.683,1.179,0.482,0.858,0.830,�k��,5.3,��
2018/02/09,20:40,0.879,1.463,0.912,1.687,1.177,0.482,0.859,0.831,�k��,6.0,��
2018/02/09,20:50,0.877,1.463,0.913,1.684,1.177,0.483,0.858,0.831,��,2.0,��
2018/02/09,21:00,0.877,1.462,0.914,1.686,1.180,0.482,0.858,0.831,���쐼,3.6,��
2018/02/09,21:10,0.878,1.463,0.915,1.686,1.175,0.483,0.859,0.832,���쐼,3.0,��
2018/02/09,21:20,0.876,1.464,0.913,1.684,1.177,0.483,0.861,0.831,��,3.1,��
2018/02/09,21:30,0.876,1.463,0.915,1.685,1.175,0.485,0.860,0.829,��,2.8,��
2018/02/09,21:40,0.876,1.463,0.914,1.685,1.178,0.483,0.859,0.831,�쐼,2.3,��
2018/02/09,21:50,0.875,1.463,0.912,1.686,1.177,0.483,0.859,0.831,�쐼,2.9,��
2018/02/09,22:00,0.876,1.464,0.912,1.685,1.176,0.481,0.859,0.831,���쐼,2.0,��
2018/02/09,22:10,0.876,1.462,0.912,1.683,1.178,0.485,0.860,0.831,��쐼,0.9,��
2018/02/09,22:20,0.875,1.462,0.915,1.685,1.175,0.484,0.858,0.828,��쐼,1.9,��
2018/02/09,22:30,0.877,1.461,0.913,1.683,1.175,0.483,0.861,0.831,���쐼,3.1,��
2018/02/09,22:40,0.876,1.462,0.915,1.684,1.176,0.485,0.859,0.830,��,4.6,��
2018/02/09,22:50,0.877,1.461,0.913,1.685,1.173,0.483,0.858,0.830,��,3.9,��
2018/02/09,23:00,0.875,1.463,0.911,1.682,1.175,0.484,0.858,0.830,���k��,2.8,��
2018/02/09,23:10,0.874,1.464,0.912,1.684,1.176,0.484,0.859,0.831,��,2.3,��
2018/02/09,23:20,0.875,1.464,0.911,1.685,1.176,0.482,0.860,0.829,��,5.7,��
2018/02/09,23:30,0.877,1.462,0.911,1.684,1.174,0.485,0.858,0.831,��,3.8,��
2018/02/09,23:40,0.876,1.461,0.913,1.687,1.175,0.482,0.859,0.830,��,3.2,��
2018/02/09,23:50,0.876,1.462,0.910,1.683,1.177,0.484,0.858,0.830,�쐼,2.0,��
